Location: Demmingen
(48.6757°N, 10.4375°E)
Time: 10:04:26
(UTC+00:00)

ALOS - Pass Details

Date: 23 May 2024
Orbit: 673 x 676 km, 98.0° (Epoch: 15 June)

Event Time Altitude Azimuth Distance (km) Brightness Sun altitude
Rises 01:21:09 0° 22° (NNE) 3,039 7.4 -15.2°
Reaches altitude 10° 01:23:39 10° 34° (NE) 2,118 6.2 -15.0°
Maximum altitude 01:27:41 29° 95° (E) 1,229 3.9 -14.6°
Drops below altitude 10° 01:31:42 10° 155° (SSE) 2,102 4.5 -14.3°
Enters shadow 01:32:25 - 160° (SSE) 2,357 4.7 -14.2°
